Regional Weather Roundup
Issued by NWS

Home | Current Version | Previous Version | Text Only | Print | Product List | Glossary Off
Versions: 1 2 3 4 5 6 7 8 9 10 11 12 13 14 15 16 17 18 19 20 21 22 23 24 25 26 27 28 29 30 31 32 33 34 35 36 37 38 39 40 41 42 43 44 45 46 47 48 49 50

000
ASUS43 KLOT 300312
RWRIL

ILLINOIS REGIONAL WEATHER ROUNDUP
NATIONAL WEATHER SERVICE CHICAGO/ROMEOVILLE IL
1000 PM CDT FRI MAY 29 2015

NOTE: "FAIR" INDICATES FEW OR NO CLOUDS BELOW 12,000 FEET WITH NO
SIGNIFICANT WEATHER AND/OR OBSTRUCTIONS TO VISIBILITY.

* THESE STATIONS ARE NOT UNDER NWS QUALITY CONTROL. THEY ALSO MAY NOT
  REPORT WEATHER SUCH AS PRECIPITATION OR FOG.

ILZ001-002-007-009-015-016-024-300400-
NORTHWEST ILLINOIS

CITY           SKY/WX    TMP DP  RH WIND       PRES   REMARKS
MOLINE         CLOUDY    71  67  87 SW5       29.95R
STERLING*      CLOUDY    70  64  83 W7        29.95R
SAVANNA*       CLOUDY    71  64  80 S8        29.93R
$$

ILZ003-004-008-010-011-017-018-300400-
NORTH CENTRAL ILLINOIS

CITY           SKY/WX    TMP DP  RH WIND       PRES   REMARKS
ROCKFORD       CLOUDY    71  65  81 SW7       29.94R
FREEPORT*      CLOUDY    69  65  86 SW6       29.95R
ROCHELLE*      CLOUDY    73  64  73 W7        29.94R
DE KALB*       CLOUDY    67  62  86 SW5       29.95R
PERU*          CLOUDY    73  64  72 S8        29.96R
$$

ILZ005-006-012>014-019>023-300400-
NORTHEAST ILLINOIS

CITY           SKY/WX    TMP DP  RH WIND       PRES   REMARKS
CHICAGO-OHARE  CLOUDY    76  64  66 SW9       29.92R
CHICAGO-MIDWAY CLOUDY    77  66  68 S10       29.93R
AURORA         MOCLDY    74  62  66 SW8       29.94R
LANSING*       CLOUDY    70  63  77 S6        29.95S
JOLIET*        CLOUDY    74  68  81 SW7       29.95R
WAUKEGAN       CLOUDY    72  63  73 SW5       29.91R
DUPAGE AIRPORT CLOUDY    75  64  68 W6        29.93R
KANKAKEE*      CLOUDY    70  67  90 S8        29.99R
WHEELING       CLOUDY    72  67  84 W3        29.93S
MORRIS*        MOCLDY    72  66  82 SW10      29.94R
ROMEOVILLE*    CLOUDY    73  65  76 SW12      29.95R
NORTHERLY ISL    N/A     75  64  68 S13         N/A
$$

LMZ740>746-300400-
SOUTHERN LAKE MICHIGAN

STATION/POSITION SKY/WX   TEMP    WIND        PRES    VSBY  WAVE
                          AIR SEA DIR/SP/G                  HT/PER
                          (F)     (DEG/KT/KT) (MB)    (MI)  (FT/S)
SOUTHERN BUOY              47 38  200/  8/  8 1013.5R         0
HARRISON CRIB              76     200/ 15/ 18   N/A
BURNHAM HARBOR             75     190/ 10/ 12   N/A
CALUMET HARBOR             74     190/  7/ 11   N/A
BURNS HARBOR               73     200/ 16/ 23 1014.6R
MICHIGAN CITY              72     170/  6/ 11   N/A
MICHIGAN CITY 6N           64 56  220/  8/ 10   N/A           1/ 2
ST. JOSEPH                 62 58  210/  8/ 10   N/A           1/ 3
$$

ILZ025>027-034>036-040-047-049-050-058-095>099-300400-
WEST-CENTRAL ILLINOIS

CITY           SKY/WX    TMP DP  RH WIND       PRES   REMARKS
QUINCY         CLOUDY    70  66  87 S6        29.99R
GALESBURG*     CLOUDY    71  64  80 SW7       29.98R
MACOMB*        CLOUDY    71  65  82 SW6       30.00R
JACKSONVILLE*  CLOUDY    75  66  75 SW3       29.99R
PITTSFIELD*    CLOUDY    73  66  79 CALM      30.01R
$$

ILZ028>032-037-038-041>044-048-051>054-059>061-300400-
CENTRAL ILLINOIS

CITY           SKY/WX    TMP DP  RH WIND       PRES   REMARKS
PONTIAC        CLOUDY    71  67  89 SW7       29.98R
BLOOMINGTON    CLOUDY    68  66  93 SW8       30.00R
DECATUR        CLOUDY    71  67  87 S9        30.01R
PEORIA         MOCLDY    72  67  84 S8        29.98R
LACON*         MOCLDY    71  66  83 S6        29.96R
LINCOLN*       CLOUDY    71  67  89 S8        29.97S
SPRINGFIELD    CLOUDY    72  69  90 S9        29.99R
TAYLORVILLE    CLOUDY    68  66  94 S6        30.01R
$$

ILZ033-039-045-046-055>057-062-063-300400-
EAST-CENTRAL ILLINOIS

CITY           SKY/WX    TMP DP  RH WIND       PRES   REMARKS
CHAMPAIGN      CLOUDY    72  67  84 SW7       30.01R
DANVILLE*      CLOUDY    71  62  74 CALM      29.98S
RANTOUL*       DRIZZLE   70  68  93 S5        30.00R
MATTOON        LGT RAIN  69  65  86 S7        30.02R
PARIS*         CLOUDY    73  63  72 S6        30.04R
$$

ILZ079-100>102-300400-
SOUTHWEST ILLINOIS

CITY           SKY/WX    TMP DP  RH WIND       PRES   REMARKS
ALTON          MOCLDY    70  70 100 SE6       30.01
BELLEVILLE     DRIZZLE   69  69 100 SE8       30.00R
CAHOKIA*       CLOUDY    71  67  87 SE6       30.00R
SPARTA*        RAIN      67  66  96 CALM      30.05R
$$

ILZ064>066-069>071-074>076-080>082-084>086-088>090-092>094-300400-
SOUTH-CENTRAL ILLINOIS

CITY           SKY/WX    TMP DP  RH WIND       PRES   REMARKS
CARBONDALE     CLOUDY    70  67  90 NW9       30.04R
CAIRO*         CLOUDY    77  69  76 S5        30.03R
EFFINGHAM*     CLOUDY    67  64  90 SE8       30.06R
MARION         MOCLDY    73  66  78 E7        30.04R
MT. VERNON     PTCLDY    66  61  82 CALM      30.05R
CENTRALIA*     LGT RAIN  67  65  94 S5        30.03R
SALEM*         CLOUDY    69  66  90 CALM      30.03R
METROPOLIS*    PTCLDY    76  69  79 CALM      30.03R
$$

ILZ067-068-072-073-078-083-087-091-300400-
SOUTHEAST ILLINOIS

CITY           SKY/WX    TMP DP  RH WIND       PRES   REMARKS
LAWRENCEVILLE  MOCLDY    75  65  70 W8        30.05R
FLORA*         MOCLDY    67  66  97 E5        30.04F
FAIRFIELD*     PTCLDY    69  66  89 NE3       30.04R
HARRISBURG*    MOCLDY    73  65  78 NE5       30.06R
ROBINSON*      CLOUDY    74  64  72 SW6       30.06R
CARMI*         PTCLDY    72  61  68 NW5       30.05R
$$

ABBREVIATIONS USED IN REMARKS
   TC - TEMPERATURE IN CELSIUS
  WCI - WIND CHILL INDEX
   HX - HEAT INDEX
  VSB - VISIBILITY
$$




USA.gov is the U.S. government's official web portal to all federal, state and local government web resources and services.